Location: Antioch Baptist Church
(32.6696°N, 85.7327°W)
Time: 10:34:10
(UTC+00:00)

Cosmos-2242 - Pass Details

Date: 07 November 2020
Orbit: 592 x 616 km, 82.5° (Epoch: 26 November)

Event Time Altitude Azimuth Distance (km) Brightness Sun altitude
Rises 09:47:25 0° 20° (NNE) 2,888 6.7 -29.5°
Reaches altitude 10° 09:51:19 10° 55° (NE) 1,979 6.3 -28.6°
Maximum altitude 09:52:41 11° 73° (ENE) 1,895 6.4 -28.3°
Drops below altitude 10° 09:54:02 10° 92° (E) 1,975 6.6 -28.1°
Sets 09:57:53 0° 127° (SE) 2,873 7.3 -27.3°
